Quick links : Home Page : Contact Us : Index : Site Map : Search Site : Ephemerides


183P/Korlevic-Juric

Orbital Elements

The following orbital elements are taken from MPC 58540:
183P/Korlevic-Juric
Epoch 2008 May 14.0 TT = JDT 2454600.5
T 2008 May  9.1170 TT                                   MPC
q   3.893979             (2000.0)            P               Q
n   0.1030437      Peri.  161.6770      -0.9746770      -0.2212149
a   4.505971       Node     5.8431      +0.1429124      -0.7286588
e   0.135818       Incl.   18.7306      +0.1719908      -0.6481668
P   9.56
From 54 observations 1954-2006, mean residual 0".7.
An explanation of the orbital elements is available.

These orbital elements are also available in forms suitable for loading into a number of popular planetarium-type software programs.


Ephemeris

The following ephemeris is at intervals of five days. A daily ephemeris covering the same time interval is also available.

Personalized ephemerides for this (and other) objects may be generated using the Minor Planet & Comet Ephemeris Service.

Recent magnitude estimates for this comet (as reported to the ICQ) may be available.

Date    TT    R. A. (2000) Decl.     Delta      r     Elong.  Phase   m1    m2

WARNING!

This comet gets close to the sun during the period covered in the ephemeris below. Observers are warned to be wary of observing comets near the sun. NEVER point any kind of optical instrument at the sun--instant blindness will be the probable result.

2008 06 13 10 46.10 +12 20.9 4.013 3.896 76.1 14.7 19.3 2008 06 18 10 49.20 +11 44.4 4.084 3.896 72.2 14.4 19.3 2008 06 23 10 52.53 +11 07.0 4.153 3.897 68.5 14.0 19.3 2008 06 28 10 56.07 +10 28.7 4.221 3.897 64.7 13.6 19.4 2008 07 03 10 59.81 +09 49.7 4.287 3.898 61.1 13.2 19.4 2008 07 08 11 03.74 +09 09.9 4.350 3.899 57.5 12.7 19.4 2008 07 13 11 07.83 +08 29.5 4.411 3.900 53.9 12.2 19.4 2008 07 18 11 12.07 +07 48.4 4.470 3.900 50.3 11.6 19.4 2008 07 23 11 16.44 +07 06.7 4.525 3.901 46.8 11.0 19.4 2008 07 28 11 20.95 +06 24.5 4.578 3.902 43.4 10.3 19.4 2008 08 02 11 25.56 +05 41.7 4.627 3.903 39.9 9.6 19.4 2008 08 07 11 30.29 +04 58.5 4.673 3.905 36.5 8.9 19.4 2008 08 12 11 35.10 +04 14.9 4.715 3.906 33.1 8.1 19.4 2008 08 17 11 39.99 +03 30.9 4.754 3.907 29.7 7.4 19.4 2008 08 22 11 44.96 +02 46.6 4.789 3.908 26.3 6.6 19.4 2008 08 27 11 49.99 +02 02.0 4.821 3.910 22.9 5.8 19.3 2008 09 01 11 55.09 +01 17.2 4.848 3.911 19.6 5.0 19.3 2008 09 06 12 00.23 +00 32.1 4.871 3.913 16.2 4.1 19.3 2008 09 11 12 05.41 -00 13.1 4.890 3.914 12.8 3.3 19.2 2008 09 16 12 10.62 -00 58.3 4.904 3.916 9.4 2.4 19.2 2008 09 21 12 15.86 -01 43.7 4.915 3.918 6.1 1.6 19.1 2008 09 26 12 21.12 -02 29.0 4.921 3.920 2.7 0.7 19.0 2008 10 01 12 26.40 -03 14.3 4.923 3.921 0.8 0.2 19.0 2008 10 06 12 31.68 -03 59.5 4.920 3.923 4.2 1.1 19.1 2008 10 11 12 36.95 -04 44.6 4.913 3.925 7.6 1.9 19.2 2008 10 16 12 42.21 -05 29.5 4.901 3.927 11.1 2.8 19.2 2008 10 21 12 47.45 -06 14.1 4.885 3.929 14.5 3.6 19.3 2008 10 26 12 52.67 -06 58.5 4.865 3.932 18.0 4.5 19.3 2008 10 31 12 57.84 -07 42.5 4.840 3.934 21.6 5.3 19.3 2008 11 05 13 02.97 -08 26.2 4.811 3.936 25.1 6.1 19.4 2008 11 10 13 08.04 -09 09.4 4.778 3.938 28.7 6.9 19.4 2008 11 15 13 13.04 -09 52.2 4.741 3.941 32.3 7.7 19.4 2008 11 20 13 17.96 -10 34.5 4.700 3.943 36.0 8.5 19.4 2008 11 25 13 22.78 -11 16.2 4.655 3.946 39.7 9.2 19.4 2008 11 30 13 27.50 -11 57.3 4.606 3.948 43.4 9.9 19.4 2008 12 05 13 32.10 -12 37.8 4.554 3.951 47.2 10.5 19.4 2008 12 10 13 36.55 -13 17.6 4.498 3.954 51.0 11.2 19.4 2008 12 15 13 40.86 -13 56.6 4.439 3.956 54.9 11.7 19.4 2008 12 20 13 44.99 -14 34.9 4.378 3.959 58.8 12.3 19.4 2008 12 25 13 48.93 -15 12.4 4.314 3.962 62.8 12.8 19.4 2008 12 30 13 52.66 -15 49.1 4.247 3.965 66.8 13.2 19.4 2009 01 04 13 56.16 -16 24.9 4.179 3.968 70.9 13.5 19.4 2009 01 09 13 59.41 -16 59.7 4.108 3.971 75.1 13.8 19.4 2009 01 14 14 02.38 -17 33.5 4.037 3.974 79.3 14.1 19.3 2009 01 19 14 05.06 -18 06.4 3.965 3.977 83.6 14.2 19.3 2009 01 24 14 07.41 -18 38.1 3.892 3.980 88.0 14.3 19.3 2009 01 29 14 09.42 -19 08.7 3.819 3.983 92.4 14.3 19.2 2009 02 03 14 11.06 -19 38.0 3.746 3.986 96.9 14.2 19.2 2009 02 08 14 12.31 -20 06.0 3.674 3.990 101.5 14.0 19.1 2009 02 13 14 13.16 -20 32.7 3.604 3.993 106.2 13.7 19.1 2009 02 18 14 13.58 -20 57.8 3.535 3.997 110.9 13.4 19.0 2009 02 23 14 13.56 -21 21.2 3.469 4.000 115.8 12.9 19.0 2009 02 28 14 13.10 -21 42.9 3.406 4.004 120.7 12.3 18.9 2009 03 05 14 12.18 -22 02.6 3.346 4.007 125.7 11.6 18.8 2009 03 10 14 10.82 -22 20.3 3.291 4.011 130.8 10.8 18.8 2009 03 15 14 09.04 -22 35.8 3.240 4.014 135.9 9.9 18.7 2009 03 20 14 06.84 -22 49.0 3.194 4.018 141.0 9.0 18.6 2009 03 25 14 04.27 -22 59.7 3.155 4.022 146.2 7.9 18.6 2009 03 30 14 01.36 -23 07.9 3.121 4.026 151.3 6.8 18.5 2009 04 04 13 58.18 -23 13.6 3.093 4.029 156.3 5.7 18.4 2009 04 09 13 54.77 -23 16.8 3.073 4.033 161.0 4.6 18.4 2009 04 14 13 51.22 -23 17.6 3.060 4.037 165.1 3.7 18.3 2009 04 19 13 47.58 -23 16.1 3.054 4.041 167.8 3.0 18.3 2009 04 24 13 43.94 -23 12.6 3.055 4.045 168.3 2.9 18.3 2009 04 29 13 40.37 -23 07.4 3.064 4.049 166.3 3.4 18.3 2009 05 04 13 36.95 -23 00.7 3.080 4.053 162.6 4.3 18.4 2009 05 09 13 33.74 -22 53.0 3.103 4.057 158.2 5.3 18.4 2009 05 14 13 30.79 -22 44.7 3.133 4.062 153.4 6.4 18.5 2009 05 19 13 28.16 -22 36.2 3.169 4.066 148.5 7.5 18.6 2009 05 24 13 25.88 -22 27.7 3.211 4.070 143.5 8.5 18.7 2009 05 29 13 23.99 -22 19.9 3.259 4.074 138.5 9.5 18.7 2009 06 03 13 22.52 -22 12.8 3.312 4.079 133.6 10.4 18.8 2009 06 08 13 21.46 -22 06.9 3.370 4.083 128.8 11.2 18.9 2009 06 13 13 20.83 -22 02.3 3.431 4.087 124.0 11.9 19.0 2009 06 18 13 20.62 -21 59.2 3.497 4.092 119.4 12.5 19.0 2009 06 23 13 20.83 -21 57.9 3.565 4.096 114.8 13.0 19.1 2009 06 28 13 21.45 -21 58.3 3.636 4.101 110.3 13.4 19.1 2009 07 03 13 22.47 -22 00.5 3.709 4.105 105.9 13.8 19.2 2009 07 08 13 23.86 -22 04.7 3.784 4.110 101.5 14.0 19.3 2009 07 13 13 25.62 -22 10.6 3.860 4.114 97.3 14.2 19.3 2009 07 18 13 27.73 -22 18.4 3.936 4.119 93.1 14.3 19.4

Back to Observable Comets

MPC CBAT ICQ

Valid HTML 4.01!